This is the latest recevied weather packets stored in our database for station/object KN6ZYR. If no packets are shown the sender has not sent any weather packets the latest 10 day(s).
| Time | Temp. | Humidity | Pressure | Rain* | Wind** | Luminosity | Snow |
|---|---|---|---|---|---|---|---|
| 1778085837 | 20.56° C | 39% | 1023.9 hPa | 0 mm | - | 548 W/m² | - |
| 1778085536 | 20.56° C | 38% | 1024.1 hPa | 0 mm | - | 534 W/m² | - |
| 1778085229 | 20° C | 42% | 1024.1 hPa | 0 mm | - | 521 W/m² | - |
| 1778084925 | 20° C | 39% | 1023.9 hPa | 0 mm | - | 510 W/m² | - |
| 1778084623 | 20° C | 43% | 1023.8 hPa | 0 mm | - | 493 W/m² | - |
| 1778084320 | 18.33° C | 40% | 1023.8 hPa | 0 mm | - | 479 W/m² | - |
| 1778084018 | 17.78° C | 42% | 1023.9 hPa | 0 mm | - | 468 W/m² | - |
| 1778083715 | 18.89° C | 42% | 1023.9 hPa | 0 mm | - | 450 W/m² | - |
| 1778083412 | 18.33° C | 45% | 1023.5 hPa | 0 mm | - | 437 W/m² | - |
| 1778083111 | 17.78° C | 44% | 1023.8 hPa | 0 mm | - | 424 W/m² | - |
| 1778082807 | 17.22° C | 44% | 1023.8 hPa | 0 mm | - | 412 W/m² | - |
| 1778081679 | 16.67° C | 46% | 1023.5 hPa | 0 mm | - | 135 W/m² | - |
| 1778081377 | 16.11° C | 47% | 1023.6 hPa | 0 mm | - | 363 W/m² | - |
| 1778081073 | 15.56° C | 48% | 1023.5 hPa | 0 mm | - | 338 W/m² | - |
| 1778080772 | 15° C | 50% | 1023.4 hPa | 0 mm | - | 328 W/m² | - |
| 1778080468 | 15° C | 51% | 1023.2 hPa | 0 mm | - | 309 W/m² | - |
| 1778080166 | 14.44° C | 52% | 1023.4 hPa | 0 mm | - | 299 W/m² | - |
| 1778079862 | 13.33° C | 58% | 1023.4 hPa | 0 mm | - | 284 W/m² | - |
| 1778079559 | 11.67° C | 61% | 1023.5 hPa | 0 mm | - | 270 W/m² | - |
| 1778079255 | 11.67° C | 63% | 1023.4 hPa | 0 mm | - | 60 W/m² | - |
| 1778078953 | 11.67° C | 64% | 1023.4 hPa | 0 mm | - | 57 W/m² | - |
| 1778078649 | 11.67° C | 64% | 1023.2 hPa | 0 mm | - | 55 W/m² | - |
| 1778078348 | 12.22° C | 60% | 1023.3 hPa | 0 mm | - | 54 W/m² | - |
| 1778078044 | 12.22° C | 61% | 1023.4 hPa | 0 mm | - | 56 W/m² | - |
| 1778077743 | 12.22° C | 60% | 1023.2 hPa | 0 mm | - | 119 W/m² | - |
* Rain latest hour (hover to see other rain measurements)
** Current wind speed in m/s (hover to see current wind gust speed)